Location: Newark
(45.4422°N, 16.2769°E)
Time: 23:29:52
(UTC+00:00)

Vanguard 2 - Pass Details

Date: 15 December 2019
Orbit: 553 x 2938 km, 32.9° (Epoch: 19 January)

Event Time Altitude Azimuth Distance (km) Brightness Sun altitude
Rises 00:51:29 0° 250° (WSW) 5,695 - -56.8°
Reaches altitude 10° 00:54:57 10° 246° (WSW) 4,953 - -56.3°
Maximum altitude 01:09:34 53° 176° (S) 3,318 - -54.0°
Exits shadow 01:14:08 45° 139° (SE) 3,615 10.7 -53.3°
Drops below altitude 10° 01:26:24 10° 107° (ESE) 5,636 12.2 -51.3°
Sets 01:30:39 0° 103° (ESE) 6,500 12.7 -50.7°
